Weather History for LTBA - April, 2014

Change the Weather History Date:

Saturday, April 5, 2014

  Actual Average Record
Temperature  
Mean Temperature 60 °F -  
Max Temperature 72 °F 61 °F - (-1)
Min Temperature 49 °F 46 °F - (-1)
Degree Days  
Heating Degree Days 4    
Growing Degree Days 10 (Base 50)    
Moisture  
Dew Point 44 °F    
Average Humidity 56    
Maximum Humidity 100    
Minimum Humidity 18    
Precipitation  
Precipitation 0.00 in - - ()
Sea Level Pressure  
Sea Level Pressure 29.96 in    
Wind  
Wind Speed 3 mph ()    
Max Wind Speed 8 mph    
Max Gust Speed 18 mph    
Visibility 4.3 miles    
Events      
Averages and records for this station are not official NWS values.
T = Trace of Precipitation, MM = Missing Value Source: Averaged Metar Reports

Daily Weather History Graph

Daily Weather History Graph

Search for Another Location

Airport or City:

Trip Planner

Search our weather history database for the weather conditions in past years. The results will help you decide how hot, cold, wet, or windy it might be!

Date:

Astronomy

Apr. 05, 2014 Rise Set
Actual Time 6:42 AM EEST 7:33 PM EEST
Civil Twilight 6:14 AM EEST 8:01 PM EEST
Nautical Twilight 5:41 AM EEST 8:34 PM EEST
Astronomical Twilight 5:06 AM EEST 9:09 PM EEST
Moon 10:31 AM EEST (4/5) 12:28 AM EEST (4/5)
Length of Visible Light 13h 47m
Length of Day
12h 51m
Waxing Crescent, 31% of the Moon is Illuminated
Apr 5
Waxing Crescent
Apr 7
First Quarter
Apr 15
Full
Apr 22
Last Quarter
Apr 29
New

Hourly Weather History & Observations

Time (EEST) Temp. Dew Point Humidity Pressure Visibility Wind Dir Wind Speed Gust Speed Precip Events Conditions
12:00 AM 56 °F 51 °F 80% 29.98 in 6 mi SW 6.9 mph - -  
12:20 AM 55.4 °F 50.0 °F 82% 29.98 in - South 3.5 mph - N/A   Clear
12:50 AM 53.6 °F 51.8 °F 94% 29.98 in - SSW 4.6 mph - N/A   Clear
1:20 AM 55.4 °F 51.8 °F 88% 29.95 in - SW 4.6 mph - N/A   Clear
1:50 AM 55.4 °F 51.8 °F 88% 29.98 in - WSW 3.5 mph - N/A   Clear
2:20 AM 53.6 °F 50.0 °F 88% 29.95 in - Variable 2.3 mph - N/A   Clear
2:50 AM 51.8 °F 50.0 °F 94% 29.95 in - Calm Calm - N/A   Clear
3:00 AM 52 °F 50 °F 90% 29.97 in 6 mi Calm Calm - -  
3:20 AM 53.6 °F 51.8 °F 94% 29.95 in - East 3.5 mph - N/A   Clear
3:50 AM 51.8 °F 48.2 °F 88% 29.95 in 3.7 mi Variable 1.2 mph - N/A   Unknown
4:20 AM 51.8 °F 50.0 °F 94% 29.95 in 3.7 mi ESE 4.6 mph - N/A   Unknown
4:50 AM 51.8 °F 50.0 °F 94% 29.95 in 3.7 mi SE 1.2 mph - N/A   Unknown
5:20 AM 50.0 °F 50.0 °F 100% 29.95 in 3.7 mi Variable 1.2 mph - N/A   Unknown
5:50 AM 51.8 °F 50.0 °F 94% 29.95 in 3.7 mi Variable 1.2 mph - N/A   Unknown
6:00 AM 51 °F 49 °F 90% 29.96 in 4 mi East 1.2 mph - -   Mist
6:20 AM 53.6 °F 50.0 °F 88% 29.95 in 3.7 mi SE 4.6 mph - N/A   Unknown
6:50 AM 55.4 °F 50.0 °F 82% 29.95 in 3.1 mi SE 5.8 mph - N/A   Mist
7:20 AM 55.4 °F 50.0 °F 82% 29.95 in 2.5 mi ESE 4.6 mph - N/A   Mist
7:50 AM 53.6 °F 50.0 °F 88% 29.98 in 3.7 mi Variable 1.2 mph - N/A   Unknown
8:20 AM 55.4 °F 50.0 °F 82% 29.95 in 3.7 mi Variable 1.2 mph - N/A   Unknown
8:50 AM 59.0 °F 50.0 °F 72% 29.95 in 3.7 mi SE 8.1 mph - N/A   Unknown
9:00 AM 59 °F 49 °F 62% 29.97 in 4 mi SE 8.1 mph - -   Mist
9:20 AM 60.8 °F 50.0 °F 68% 29.95 in 3.7 mi SSE 6.9 mph - N/A   Unknown
9:50 AM 59.0 °F 50.0 °F 72% 29.95 in 3.7 mi Variable 1.2 mph - N/A   Unknown
10:20 AM 60.8 °F 48.2 °F 63% 29.98 in 4.3 mi Variable 1.2 mph - N/A   Unknown
10:50 AM 64.4 °F 46.4 °F 52% 29.98 in - Variable 1.2 mph - N/A   Clear
11:20 AM 64.4 °F 44.6 °F 49% 29.98 in - Calm Calm - N/A   Clear
11:50 AM 62.6 °F 44.6 °F 52% 29.98 in - Calm Calm - N/A   Clear
12:00 PM 63 °F 42 °F 35% 29.99 in 6 mi Calm Calm - -   Mostly Cloudy
12:20 PM 64.4 °F 42.8 °F 45% 29.98 in - SSE 4.6 mph - N/A   Clear
12:50 PM 66.2 °F 41.0 °F 40% 29.98 in - Calm Calm - N/A   Clear
1:20 PM 66.2 °F 42.8 °F 43% 29.98 in - Calm Calm - N/A   Clear
1:50 PM 68.0 °F 39.2 °F 35% 29.98 in - Variable 2.3 mph - N/A   Clear
2:20 PM 69.8 °F 39.2 °F 33% 29.95 in - Calm Calm - N/A   Clear
2:50 PM 71.6 °F 39.2 °F 31% 29.95 in - Calm Calm - N/A   Clear
3:00 PM 71 °F 38 °F 19% 29.97 in 6 mi Calm Calm - -   Mostly Cloudy
3:20 PM 69.8 °F 32.0 °F 25% 29.95 in - Calm Calm - N/A   Clear
3:50 PM 69.8 °F 35.6 °F 28% 29.95 in - Calm Calm - N/A   Clear
4:20 PM 71.6 °F 37.4 °F 29% 29.95 in - Calm Calm - N/A   Clear
4:50 PM 69.8 °F 39.2 °F 33% 29.95 in - Calm Calm - N/A   Clear
5:20 PM 69.8 °F 41.0 °F 35% 29.95 in - Calm Calm - N/A   Clear
5:50 PM 69.8 °F 37.4 °F 31% 29.95 in - Calm Calm - N/A   Clear
6:00 PM 70 °F 38 °F 20% 29.96 in 6 mi Calm Calm - -   Mostly Cloudy
6:20 PM 69.8 °F 37.4 °F 31% 29.95 in - Calm Calm - N/A   Clear
6:50 PM 68.0 °F 35.6 °F 30% 29.95 in - Calm Calm - N/A   Clear
7:20 PM 69.8 °F 39.2 °F 33% 29.95 in - NE 6.9 mph - N/A   Clear
7:50 PM 71.6 °F 37.4 °F 29% 29.95 in - NE 6.9 mph - N/A   Clear
8:20 PM 69.8 °F 37.4 °F 31% 29.95 in - NE 5.8 mph - N/A   Clear
8:50 PM 71.6 °F 39.2 °F 31% 29.95 in - Variable 6.9 mph 18.4 mph N/A   Clear
9:00 PM 71 °F 37 °F 18% 29.97 in 6 mi East 6.9 mph - -  
9:20 PM 69.8 °F 37.4 °F 31% 29.95 in - ENE 5.8 mph - N/A   Clear
9:50 PM 66.2 °F 37.4 °F 35% 29.95 in - North 8.1 mph - N/A   Clear
10:20 PM 66.2 °F 37.4 °F 35% 29.98 in - NNE 6.9 mph - N/A   Clear
10:50 PM 66.2 °F 37.4 °F 35% 29.98 in - Calm Calm - N/A   Clear
11:20 PM 66.2 °F 37.4 °F 35% 29.98 in - NE 4.6 mph - N/A   Clear
11:50 PM 64.4 °F 35.6 °F 34% 29.98 in - Calm Calm - N/A   Clear